Location: Caseificio
(44.7500°N, 11.0500°E)
Time: 22:32:29
(UTC+00:00)

Meteor 2-10 Rocket - Pass Details

Date: 26 May 2022
Orbit: 733 x 885 km, 81.2° (Epoch: 29 June)

Event Time Altitude Azimuth Distance (km) Brightness Sun altitude
Rises 00:31:14 0° 348° (NNW) 3,459 7.8 -21.8°
Reaches altitude 10° 00:33:43 10° 347° (NNW) 2,500 6.9 -21.6°
Maximum altitude 00:39:24 79° 262° (W) 853 3.6 -21.3°
Enters shadow 00:41:17 43° 183° (S) 1,153 3.9 -21.1°
